Lid_Strength_Index
9 9 10 11 11 12 12 12 12 10 10 10 11 10 9 9 7 7 6 2 2 1 0 -0 -0 -1 -0 -0 0 1 0 1 1 1 1 1 1 1 1 0 -0 -0 -0
7 9 10 11 11 12 12 12 12 11 11 11 11 10 9 8 8 8 8 6 3 3 2 1 1 0 -0 0 1 1 1 1 1 1 1 1 1 1 1 0 0 -0 -0
7 9 9 11 11 11 12 12 12 11 11 11 11 10 8 8 9 9 9 9 9 4 3 2 2 1 1 1 1 1 1 1 1 2 2 1 1 1 1 0 -0 -0 -0
8 9 10 10 10 11 12 13 13 12 12 12 12 10 9 9 9 10 10 10 10 9 7 4 4 3 2 2 1 1 1 2 2 2 2 1 1 1 1 1 0 0 -0
8 9 10 10 10 12 13 13 14 13 13 12 11 10 10 10 10 10 11 11 10 11 11 8 7 5 4 3 2 2 2 2 2 2 2 2 2 1 1 1 0 0 0
8 9 10 11 11 12 13 14 14 13 13 12 10 10 10 11 11 11 11 11 11 11 11 11 12 10 6 5 4 3 3 2 2 2 2 2 2 1 1 1 1 0 0
8 9 10 11 12 13 14 14 14 14 13 12 11 11 11 11 11 12 12 12 11 11 11 11 12 12 11 7 6 4 3 2 2 2 2 2 2 2 2 1 1 1 0
9 10 10 11 12 13 14 14 13 14 13 13 12 12 13 12 12 12 12 12 12 12 12 12 12 12 12 12 9 6 4 3 3 3 3 3 2 2 2 1 1 1 1
9 10 10 11 12 13 14 15 14 13 14 13 12 11 13 14 13 13 13 13 13 13 13 12 12 12 12 12 11 8 6 5 4 4 4 3 3 3 2 2 2 2 1
10 10 11 11 12 13 14 14 14 14 13 14 12 11 12 12 13 15 14 14 13 13 13 13 13 12 12 12 10 9 7 6 6 5 5 4 4 3 3 2 2 2 2
9 10 11 11 12 12 13 14 15 15 13 13 13 13 13 14 14 14 17 15 14 14 13 13 13 13 12 12 11 10 8 7 6 6 6 5 5 4 4 3 2 2 2
11 10 10 11 12 13 14 14 14 14 14 13 12 13 13 13 14 15 16 16 16 15 14 13 13 13 10 12 11 10 8 7 7 6 6 6 5 5 4 4 3 3 3
11 11 11 11 12 13 13 14 14 14 14 13 12 13 13 13 14 14 15 17 17 17 16 14 13 13 10 12 12 11 9 8 7 7 7 6 6 6 6 5 4 4 4
9 10 11 11 12 13 14 14 14 14 14 13 13 13 13 13 13 14 14 16 19 20 18 15 14 11 11 13 12 11 10 8 8 7 7 7 7 7 7 6 5 5 5
9 10 11 12 12 13 13 14 14 14 14 13 12 13 13 13 13 14 14 14 15 19 19 17 12 11 11 14 13 12 11 10 8 8 8 8 8 7 7 7 6 6 5
10 10 11 11 12 13 14 14 14 14 14 13 12 13 13 13 13 13 14 14 15 16 17 13 12 11 12 13 14 14 13 12 10 9 9 9 9 9 8 8 7 7 6
11 11 11 12 12 13 13 14 14 14 14 13 13 13 13 13 14 14 13 13 14 15 16 13 12 12 13 17 15 14 15 14 12 11 10 10 10 9 9 9 8 8 8
11 11 11 12 12 12 13 13 14 14 15 13 13 13 13 12 13 13 14 14 14 15 16 15 13 13 14 18 15 14 14 13 16 12 12 11 11 10 10 9 9 9 9
13 12 11 11 12 13 13 13 14 14 15 13 12 12 13 13 14 15 14 15 15 15 16 16 14 13 14 17 15 14 14 18 15 14 14 14 13 12 11 10 10 10 10
14 13 12 12 12 13 13 14 14 14 15 13 13 12 13 13 14 14 14 15 15 16 17 16 14 14 14 14 14 15 15 19 16 16 17 16 16 15 13 11 11 10 10
14 14 14 13 13 13 13 14 14 14 14 14 13 13 13 13 12 13 15 15 15 16 16 16 15 15 15 16 16 16 16 16 16 16 16 20 20 20 18 14 12 11 10
16 17 14 13 13 13 11 11 12 14 14 13 13 14 13 14 12 11 12 12 14 15 16 17 17 17 16 16 16 16 16 16 17 17 16 17 23 21 20 15 12 11 10
15 16 16 15 13 12 11 10 12 14 14 13 13 13 13 13 13 13 12 12 13 12 13 15 17 17 17 18 16 17 17 17 17 17 17 16 20 23 22 19 13 12 11
13 14 15 15 14 13 11 10 12 14 14 14 14 13 13 13 14 14 14 14 14 14 14 15 16 17 17 16 16 16 17 18 17 17 17 17 16 23 23 22 14 13 12
12 13 13 14 14 13 10 10 11 14 14 15 15 14 14 15 13 12 15 16 15 14 13 13 14 14 14 15 16 17 18 18 17 17 18 17 16 19 24 23 20 15 14
12 12 13 13 14 13 11 10 11 13 14 15 16 16 14 15 13 12 16 17 17 16 15 16 16 16 16 16 16 17 17 17 16 18 19 17 17 17 22 25 23 20 20